Time,TemperatureF,DewpointF,PressureIn,WindDirection,WindDirectionDegrees,WindSpeedMPH,WindSpeedGustMPH,Humidity,HourlyPrecipIn,Conditions,Clouds,dailyrainin,SoftwareType,DateUTC
2013-04-01 00:00:00,42.8,39.8,29.75,SW,234,2.0,12.0,89,0.00,,---,0.00,VWS V14.00,2013-04-01 04:00:00,
2013-04-01 00:10:00,42.7,39.4,29.74,WSW,239,9.0,10.0,88,0.00,,---,0.00,VWS V14.00,2013-04-01 04:10:00,
2013-04-01 00:18:00,43.0,39.7,29.74,WSW,237,9.0,18.0,88,0.00,,---,0.00,VWS V14.00,2013-04-01 04:18:00,
2013-04-01 00:30:00,43.2,39.3,29.74,WSW,245,7.0,18.0,86,0.00,,---,0.00,VWS V14.00,2013-04-01 04:30:00,
2013-04-01 00:42:00,43.2,39.0,29.73,WSW,248,8.0,14.0,85,0.00,,---,0.00,VWS V14.00,2013-04-01 04:42:00,
2013-04-01 00:50:00,43.3,39.1,29.73,SW,226,5.0,14.0,85,0.00,,---,0.00,VWS V14.00,2013-04-01 04:50:00,
2013-04-01 00:58:00,43.4,39.2,29.72,SW,217,10.0,15.0,85,0.00,,---,0.00,VWS V14.00,2013-04-01 04:58:00,
2013-04-01 01:00:00,43.4,39.2,29.72,SW,236,9.0,15.0,85,0.00,,---,0.00,VWS V14.00,2013-04-01 05:00:00,
2013-04-01 01:06:00,43.2,39.3,29.72,SW,227,4.0,14.0,86,0.00,,---,0.00,VWS V14.00,2013-04-01 05:06:00,
2013-04-01 01:14:00,43.2,39.3,29.72,SW,236,10.0,14.0,86,0.00,,---,0.00,VWS V14.00,2013-04-01 05:14:00,
2013-04-01 01:22:00,43.2,39.3,29.73,West,259,7.0,14.0,86,0.00,,---,0.00,VWS V14.00,2013-04-01 05:22:00,
2013-04-01 01:30:00,43.2,39.3,29.73,WSW,254,5.0,14.0,86,0.00,,---,0.00,VWS V14.00,2013-04-01 05:30:00,
2013-04-01 01:38:00,43.1,39.5,29.73,West,261,6.0,13.0,87,0.01,,---,0.01,VWS V14.00,2013-04-01 05:38:00,
2013-04-01 01:46:00,42.9,39.3,29.73,SW,217,9.0,15.0,87,0.02,,---,0.02,VWS V14.00,2013-04-01 05:46:00,
2013-04-01 01:54:00,42.7,39.4,29.73,NW,306,2.0,15.0,88,0.02,,---,0.02,VWS V14.00,2013-04-01 05:54:00,
2013-04-01 02:00:00,42.6,39.3,29.72,SW,229,4.0,15.0,88,0.02,,---,0.02,VWS V14.00,2013-04-01 06:00:00,
2013-04-01 02:10:00,42.5,39.5,29.72,SW,232,5.0,8.0,89,0.02,,---,0.02,VWS V14.00,2013-04-01 06:10:00,
2013-04-01 02:18:00,42.5,39.5,29.72,SW,229,7.0,18.0,89,0.04,,---,0.04,VWS V14.00,2013-04-01 06:18:00,
2013-04-01 02:26:00,42.6,39.6,29.72,WNW,289,7.0,19.0,89,0.04,,---,0.04,VWS V14.00,2013-04-01 06:26:00,
2013-04-01 02:34:00,42.5,39.5,29.72,WSW,249,4.0,5.0,89,0.04,,---,0.04,VWS V14.00,2013-04-01 06:34:00,
2013-04-01 02:42:00,42.3,39.6,29.72,WSW,242,9.0,11.0,90,0.04,,---,0.04,VWS V14.00,2013-04-01 06:42:00,
2013-04-01 02:50:00,42.0,39.0,29.71,WNW,284,4.0,11.0,89,0.04,,---,0.04,VWS V14.00,2013-04-01 06:50:00,
2013-04-01 02:58:00,41.8,38.8,29.71,NW,323,3.0,11.0,89,0.04,,---,0.04,VWS V14.00,2013-04-01 06:58:00,
2013-04-01 03:06:00,41.7,38.7,29.71,WNW,298,4.0,5.0,89,0.02,,---,0.04,VWS V14.00,2013-04-01 07:06:00,
2013-04-01 03:14:00,41.6,38.6,29.71,WNW,284,3.0,6.0,89,0.03,,---,0.05,VWS V14.00,2013-04-01 07:14:00,
2013-04-01 03:22:00,41.4,38.7,29.72,West,261,0.0,6.0,90,0.03,,---,0.05,VWS V14.00,2013-04-01 07:22:00,
2013-04-01 03:30:00,41.3,38.6,29.72,SSW,211,3.0,8.0,90,0.04,,---,0.06,VWS V14.00,2013-04-01 07:30:00,
2013-04-01 03:39:00,41.3,38.6,29.71,NW,311,6.0,12.0,90,0.03,,---,0.07,VWS V14.00,2013-04-01 07:39:00,
2013-04-01 03:47:00,41.1,38.4,29.71,NW,317,4.0,12.0,90,0.03,,---,0.07,VWS V14.00,2013-04-01 07:47:00,
2013-04-01 03:55:00,41.0,38.3,29.71,WNW,298,0.0,12.0,90,0.03,,---,0.07,VWS V14.00,2013-04-01 07:55:00,
2013-04-01 04:00:00,40.9,38.2,29.71,WNW,295,3.0,12.0,90,0.04,,---,0.08,VWS V14.00,2013-04-01 08:00:00,
2013-04-01 04:11:00,40.7,38.3,29.71,NW,323,4.0,8.0,91,0.06,,---,0.10,VWS V14.00,2013-04-01 08:11:00,
2013-04-01 04:19:00,39.9,37.2,29.72,NW,319,5.0,8.0,90,0.07,,---,0.11,VWS V14.00,2013-04-01 08:19:00,
2013-04-01 04:27:00,39.5,37.1,29.71,WNW,302,1.0,8.0,91,0.07,,---,0.11,VWS V14.00,2013-04-01 08:27:00,
2013-04-01 04:35:00,39.3,36.9,29.73,NNW,331,3.0,7.0,91,0.05,,---,0.11,VWS V14.00,2013-04-01 08:35:00,
2013-04-01 04:43:00,38.8,36.4,29.73,WNW,298,4.0,9.0,91,0.05,,---,0.11,VWS V14.00,2013-04-01 08:43:00,
2013-04-01 04:51:00,38.5,36.1,29.74,NW,306,4.0,9.0,91,0.05,,---,0.11,VWS V14.00,2013-04-01 08:51:00,
2013-04-01 04:59:00,38.3,35.9,29.74,NW,305,2.0,9.0,91,0.05,,---,0.11,VWS V14.00,2013-04-01 08:59:00,
2013-04-01 05:07:00,38.3,35.9,29.74,West,261,4.0,14.0,91,0.03,,---,0.11,VWS V14.00,2013-04-01 09:07:00,
2013-04-01 05:15:00,38.2,35.8,29.75,WNW,303,7.0,14.0,91,0.03,,---,0.11,VWS V14.00,2013-04-01 09:15:00,
2013-04-01 05:23:00,38.0,35.3,29.75,WNW,298,2.0,14.0,90,0.03,,---,0.11,VWS V14.00,2013-04-01 09:23:00,
2013-04-01 05:30:00,37.8,35.1,29.75,WSW,253,5.0,14.0,90,0.03,,---,0.11,VWS V14.00,2013-04-01 09:30:00,
2013-04-01 05:39:00,37.5,34.8,29.76,WNW,298,7.0,10.0,90,0.00,,---,0.11,VWS V14.00,2013-04-01 09:39:00,
2013-04-01 05:47:00,37.3,34.6,29.75,West,262,2.0,10.0,90,0.00,,---,0.11,VWS V14.00,2013-04-01 09:47:00,
2013-04-01 05:55:00,37.1,34.4,29.76,WNW,288,4.0,10.0,90,0.00,,---,0.11,VWS V14.00,2013-04-01 09:55:00,
2013-04-01 06:03:00,36.9,34.2,29.76,West,259,1.0,5.0,90,0.00,,---,0.11,VWS V14.00,2013-04-01 10:03:00,
2013-04-01 06:11:00,36.8,34.2,29.76,WSW,253,4.0,8.0,90,0.00,,---,0.11,VWS V14.00,2013-04-01 10:11:00,
2013-04-01 06:19:00,36.6,34.0,29.77,NW,306,4.0,8.0,90,0.00,,---,0.11,VWS V14.00,2013-04-01 10:19:00,
2013-04-01 06:27:00,36.5,33.8,29.77,WSW,257,1.0,8.0,90,0.00,,---,0.11,VWS V14.00,2013-04-01 10:27:00,
2013-04-01 06:35:00,36.4,33.8,29.77,WSW,256,3.0,8.0,90,0.00,,---,0.11,VWS V14.00,2013-04-01 10:35:00,
2013-04-01 06:43:00,35.7,32.8,29.78,WNW,302,9.0,22.0,89,0.00,,---,0.11,VWS V14.00,2013-04-01 10:43:00,
2013-04-01 06:51:00,34.6,31.7,29.79,NW,316,10.0,22.0,89,0.00,,---,0.11,VWS V14.00,2013-04-01 10:51:00,
2013-04-01 06:59:00,33.9,31.3,29.80,WNW,303,10.0,22.0,90,0.00,,---,0.11,VWS V14.00,2013-04-01 10:59:00,
2013-04-01 07:07:00,32.5,29.6,29.81,NW,306,11.0,15.0,89,0.00,,---,0.11,VWS V14.00,2013-04-01 11:07:00,
2013-04-01 07:16:00,31.6,29.0,29.82,NW,306,6.0,15.0,90,0.00,,---,0.11,VWS V14.00,2013-04-01 11:16:00,
2013-04-01 07:24:00,31.2,28.6,29.82,NW,306,6.0,15.0,90,0.00,,---,0.11,VWS V14.00,2013-04-01 11:24:00,
2013-04-01 07:30:00,31.1,28.5,29.83,NW,306,4.0,15.0,90,0.00,,---,0.11,VWS V14.00,2013-04-01 11:30:00,
2013-04-01 07:40:00,30.6,28.0,29.83,NW,306,5.0,14.0,90,0.00,,---,0.11,VWS V14.00,2013-04-01 11:40:00,
2013-04-01 07:48:00,29.8,27.0,29.85,NW,306,10.0,15.0,89,0.00,,---,0.11,VWS V14.00,2013-04-01 11:48:00,
2013-04-01 07:56:00,29.7,27.1,29.85,NW,306,4.0,15.0,90,0.00,,---,0.11,VWS V14.00,2013-04-01 11:56:00,
2013-04-01 08:04:00,29.4,26.8,29.86,NW,306,6.0,11.0,90,0.00,,---,0.11,VWS V14.00,2013-04-01 12:04:00,
2013-04-01 08:12:00,29.3,26.7,29.87,NW,306,7.0,12.0,90,0.00,,---,0.11,VWS V14.00,2013-04-01 12:12:00,
2013-04-01 08:20:00,29.2,26.6,29.88,NW,306,4.0,14.0,90,0.00,,---,0.11,VWS V14.00,2013-04-01 12:20:00,
2013-04-01 08:28:00,29.1,26.5,29.88,NW,306,3.0,14.0,90,0.00,,---,0.11,VWS V14.00,2013-04-01 12:28:00,
2013-04-01 08:44:00,28.8,25.4,29.88,NW,306,7.0,14.0,87,0.00,,---,0.11,VWS V14.00,2013-04-01 12:44:00,
2013-04-01 08:52:00,28.9,25.5,29.88,NW,306,10.0,14.0,87,0.00,,---,0.11,VWS V14.00,2013-04-01 12:52:00,
2013-04-01 09:00:00,29.0,25.6,29.89,NW,306,8.0,14.0,87,0.00,,---,0.11,VWS V14.00,2013-04-01 13:00:00,
2013-04-01 09:08:00,29.2,25.8,29.89,NW,306,7.0,13.0,87,0.00,,---,0.11,VWS V14.00,2013-04-01 13:08:00,
2013-04-01 09:24:00,29.9,25.7,29.90,NW,306,9.0,16.0,84,0.00,,---,0.11,VWS V14.00,2013-04-01 13:24:00,
2013-04-01 09:30:00,30.3,25.2,29.90,NW,306,3.0,16.0,81,0.00,,---,0.11,VWS V14.00,2013-04-01 13:30:00,
2013-04-01 09:40:00,30.2,24.5,29.90,NW,306,1.0,16.0,79,0.00,,---,0.11,VWS V14.00,2013-04-01 13:40:00,
2013-04-01 09:48:00,29.9,23.9,29.90,NW,306,14.0,16.0,78,0.00,,---,0.11,VWS V14.00,2013-04-01 13:48:00,
2013-04-01 09:56:00,30.1,24.1,29.91,NW,306,9.0,17.0,78,0.00,,---,0.11,VWS V14.00,2013-04-01 13:56:00,
2013-04-01 10:04:00,29.9,23.9,29.91,NW,306,4.0,13.0,78,0.00,,---,0.11,VWS V14.00,2013-04-01 14:04:00,
2013-04-01 10:12:00,29.9,23.6,29.91,NW,306,10.0,15.0,77,0.00,,---,0.11,VWS V14.00,2013-04-01 14:12:00,
2013-04-01 10:20:00,30.0,23.7,29.92,NW,306,8.0,15.0,77,0.00,,---,0.11,VWS V14.00,2013-04-01 14:20:00,
2013-04-01 10:28:00,30.2,25.1,29.93,NW,304,9.0,15.0,81,0.00,,---,0.11,VWS V14.00,2013-04-01 14:28:00,
2013-04-01 10:36:00,29.5,24.4,29.93,NW,304,6.0,17.0,81,0.00,,---,0.11,VWS V14.00,2013-04-01 14:36:00,
2013-04-01 10:44:00,29.0,23.3,29.94,NW,304,8.0,19.0,79,0.00,,---,0.11,VWS V14.00,2013-04-01 14:44:00,
2013-04-01 10:52:00,29.4,20.5,29.94,NW,304,13.0,21.0,69,0.00,,---,0.11,VWS V14.00,2013-04-01 14:52:00,
2013-04-01 11:00:00,30.2,20.6,29.94,NW,304,5.0,21.0,67,0.00,,---,0.11,VWS V14.00,2013-04-01 15:00:00,
2013-04-01 11:08:00,30.4,20.8,29.95,NW,304,10.0,17.0,67,0.00,,---,0.11,VWS V14.00,2013-04-01 15:08:00,
2013-04-01 11:16:00,29.9,19.9,29.95,NW,304,14.0,18.0,66,0.00,,---,0.11,VWS V14.00,2013-04-01 15:16:00,
2013-04-01 11:24:00,29.6,19.3,29.96,NW,304,13.0,18.0,65,0.00,,---,0.11,VWS V14.00,2013-04-01 15:24:00,
2013-04-01 11:30:00,30.0,19.3,29.96,NW,304,9.0,18.0,64,0.00,,---,0.11,VWS V14.00,2013-04-01 15:30:00,
2013-04-01 11:40:00,30.3,19.6,29.96,NW,304,14.0,18.0,64,0.01,,---,0.12,VWS V14.00,2013-04-01 15:40:00,
2013-04-01 11:49:00,30.5,19.8,29.97,NW,304,7.0,19.0,64,0.01,,---,0.12,VWS V14.00,2013-04-01 15:49:00,
2013-04-01 11:57:00,29.8,18.0,29.97,NW,304,7.0,19.0,61,0.01,,---,0.12,VWS V14.00,2013-04-01 15:57:00,
2013-04-01 12:05:00,30.1,20.1,29.98,NW,304,13.0,20.0,66,0.01,,---,0.12,VWS V14.00,2013-04-01 16:05:00,
2013-04-01 12:13:00,30.8,21.1,29.98,WNW,298,11.0,20.0,67,0.01,,---,0.12,VWS V14.00,2013-04-01 16:13:00,
2013-04-01 12:21:00,30.4,19.0,29.98,WNW,298,5.0,22.0,62,0.01,,---,0.12,VWS V14.00,2013-04-01 16:21:00,
2013-04-01 12:29:00,30.2,18.8,29.99,WNW,298,8.0,22.0,62,0.01,,---,0.12,VWS V14.00,2013-04-01 16:29:00,
2013-04-01 12:37:00,29.8,17.6,29.99,WNW,298,12.0,19.0,60,0.01,,---,0.12,VWS V14.00,2013-04-01 16:37:00,
2013-04-01 12:45:00,29.6,18.6,29.99,WNW,298,4.0,19.0,63,0.01,,---,0.12,VWS V14.00,2013-04-01 16:45:00,
2013-04-01 12:53:00,29.6,18.2,29.99,WNW,298,8.0,20.0,62,0.01,,---,0.12,VWS V14.00,2013-04-01 16:53:00,
2013-04-01 13:00:00,30.6,18.0,30.00,WNW,298,11.0,20.0,59,0.01,,---,0.12,VWS V14.00,2013-04-01 17:00:00,
2013-04-01 13:09:00,30.4,16.6,30.00,WNW,298,19.0,19.0,56,0.00,,---,0.12,VWS V14.00,2013-04-01 17:09:00,
2013-04-01 13:17:00,30.0,15.8,30.00,WNW,298,7.0,20.0,55,0.00,,---,0.12,VWS V14.00,2013-04-01 17:17:00,
2013-04-01 13:25:00,30.0,17.0,30.00,WNW,298,7.0,20.0,58,0.00,,---,0.12,VWS V14.00,2013-04-01 17:25:00,
2013-04-01 13:30:00,29.8,16.4,30.00,WNW,298,8.0,20.0,57,0.00,,---,0.12,VWS V14.00,2013-04-01 17:30:00,
2013-04-01 13:41:00,30.5,17.5,30.01,WNW,298,8.0,16.0,58,0.00,,---,0.12,VWS V14.00,2013-04-01 17:41:00,
2013-04-01 13:49:00,31.1,17.7,30.01,WNW,298,3.0,16.0,57,0.00,,---,0.12,VWS V14.00,2013-04-01 17:49:00,
2013-04-01 13:57:00,30.2,16.8,30.01,WNW,298,5.0,16.0,57,0.00,,---,0.12,VWS V14.00,2013-04-01 17:57:00,
2013-04-01 14:05:00,30.6,17.6,30.01,WNW,298,5.0,13.0,58,0.00,,---,0.12,VWS V14.00,2013-04-01 18:05:00,
2013-04-01 14:13:00,30.8,18.2,30.01,WNW,298,6.0,14.0,59,0.00,,---,0.12,VWS V14.00,2013-04-01 18:13:00,
2013-04-01 14:29:00,30.4,17.8,30.01,WNW,298,5.0,16.0,59,0.00,,---,0.12,VWS V14.00,2013-04-01 18:29:00,
2013-04-01 14:37:00,31.2,17.8,30.02,WNW,298,5.0,14.0,57,0.00,,---,0.12,VWS V14.00,2013-04-01 18:37:00,
2013-04-01 14:45:00,30.5,16.3,30.02,WNW,298,8.0,19.0,55,0.00,,---,0.12,VWS V14.00,2013-04-01 18:45:00,
2013-04-01 14:53:00,30.7,17.3,30.02,WNW,298,12.0,19.0,57,0.00,,---,0.12,VWS V14.00,2013-04-01 18:53:00,
2013-04-01 15:00:00,30.4,17.0,30.02,WNW,298,9.0,19.0,57,0.00,,---,0.12,VWS V14.00,2013-04-01 19:00:00,
2013-04-01 15:09:00,30.7,16.9,30.02,WNW,298,7.0,14.0,56,0.00,,---,0.12,VWS V14.00,2013-04-01 19:09:00,
2013-04-01 15:17:00,30.0,16.2,30.03,WNW,298,15.0,19.0,56,0.00,,---,0.12,VWS V14.00,2013-04-01 19:17:00,
2013-04-01 15:25:00,29.8,15.6,30.03,WNW,298,10.0,19.0,55,0.00,,---,0.12,VWS V14.00,2013-04-01 19:25:00,
2013-04-01 15:33:00,30.0,16.2,30.03,WNW,298,10.0,14.0,56,0.00,,---,0.12,VWS V14.00,2013-04-01 19:33:00,
2013-04-01 15:41:00,30.3,16.1,30.03,WNW,298,7.0,14.0,55,0.00,,---,0.12,VWS V14.00,2013-04-01 19:41:00,
2013-04-01 15:49:00,30.7,15.6,30.03,WNW,298,7.0,14.0,53,0.00,,---,0.12,VWS V14.00,2013-04-01 19:49:00,
2013-04-01 15:57:00,31.1,16.0,30.03,NW,311,13.0,19.0,53,0.00,,---,0.12,VWS V14.00,2013-04-01 19:57:00,
2013-04-01 16:05:00,31.5,15.0,30.04,WNW,291,14.0,20.0,50,0.00,,---,0.12,VWS V14.00,2013-04-01 20:05:00,
2013-04-01 16:13:00,31.4,14.0,30.04,WNW,290,3.0,20.0,48,0.00,,---,0.12,VWS V14.00,2013-04-01 20:13:00,
2013-04-01 16:21:00,31.2,16.1,30.05,WNW,291,5.0,20.0,53,0.00,,---,0.12,VWS V14.00,2013-04-01 20:21:00,
2013-04-01 16:29:00,31.7,15.7,30.05,NW,315,7.0,20.0,51,0.00,,---,0.12,VWS V14.00,2013-04-01 20:29:00,
2013-04-01 16:37:00,30.9,14.9,30.05,NW,315,4.0,15.0,51,0.00,,---,0.12,VWS V14.00,2013-04-01 20:37:00,
2013-04-01 16:45:00,30.6,13.7,30.05,NW,315,9.0,15.0,49,0.00,,---,0.12,VWS V14.00,2013-04-01 20:45:00,
2013-04-01 16:53:00,31.0,15.0,30.05,WNW,292,4.0,17.0,51,0.00,,---,0.12,VWS V14.00,2013-04-01 20:53:00,
2013-04-01 17:00:00,31.6,15.1,30.05,WNW,292,9.0,17.0,50,0.00,,---,0.12,VWS V14.00,2013-04-01 21:00:00,
2013-04-01 17:09:00,31.0,13.6,30.05,WNW,292,7.0,18.0,48,0.00,,---,0.12,VWS V14.00,2013-04-01 21:09:00,
2013-04-01 17:17:00,31.0,14.6,30.05,WNW,292,4.0,18.0,50,0.00,,---,0.12,VWS V14.00,2013-04-01 21:17:00,
2013-04-01 17:25:00,31.0,15.0,30.06,WNW,292,7.0,18.0,51,0.00,,---,0.12,VWS V14.00,2013-04-01 21:25:00,
2013-04-01 17:33:00,31.9,14.9,30.06,NW,306,5.0,12.0,49,0.00,,---,0.12,VWS V14.00,2013-04-01 21:33:00,
2013-04-01 17:41:00,31.4,16.3,30.06,SW,227,2.0,18.0,53,0.00,,---,0.12,VWS V14.00,2013-04-01 21:41:00,
2013-04-01 17:50:00,30.4,14.9,30.06,West,274,6.0,18.0,52,0.00,,---,0.12,VWS V14.00,2013-04-01 21:50:00,
2013-04-01 17:58:00,31.2,16.1,30.06,WNW,295,3.0,18.0,53,0.00,,---,0.12,VWS V14.00,2013-04-01 21:58:00,
2013-04-01 18:06:00,30.5,15.4,30.06,NW,316,4.0,13.0,53,0.00,,---,0.12,VWS V14.00,2013-04-01 22:06:00,
2013-04-01 18:14:00,30.1,16.3,30.06,WNW,301,7.0,15.0,56,0.00,,---,0.12,VWS V14.00,2013-04-01 22:14:00,
2013-04-01 18:22:00,30.1,15.5,30.06,WNW,303,6.0,15.0,54,0.00,,---,0.12,VWS V14.00,2013-04-01 22:22:00,
2013-04-01 18:30:00,30.0,15.4,30.06,NW,316,5.0,15.0,54,0.00,,---,0.12,VWS V14.00,2013-04-01 22:30:00,
2013-04-01 18:38:00,30.3,15.7,30.06,WSW,248,5.0,10.0,54,0.00,,---,0.12,VWS V14.00,2013-04-01 22:38:00,
2013-04-01 18:46:00,30.3,15.7,30.06,West,270,6.0,14.0,54,0.00,,---,0.12,VWS V14.00,2013-04-01 22:46:00,
2013-04-01 18:54:00,30.1,15.1,30.07,West,263,4.0,14.0,53,0.00,,---,0.12,VWS V14.00,2013-04-01 22:54:00,
2013-04-01 19:00:00,29.9,15.3,30.06,WNW,295,4.0,14.0,54,0.00,,---,0.12,VWS V14.00,2013-04-01 23:00:00,
2013-04-01 19:10:00,29.9,15.7,30.07,NNW,328,8.0,12.0,55,0.00,,---,0.12,VWS V14.00,2013-04-01 23:10:00,
2013-04-01 19:18:00,29.9,15.7,30.07,NW,306,3.0,12.0,55,0.00,,---,0.12,VWS V14.00,2013-04-01 23:18:00,
2013-04-01 19:26:00,29.9,15.7,30.07,WNW,294,10.0,12.0,55,0.00,,---,0.12,VWS V14.00,2013-04-01 23:26:00,
2013-04-01 19:34:00,29.8,15.2,30.07,WSW,256,11.0,17.0,54,0.00,,---,0.12,VWS V14.00,2013-04-01 23:34:00,
2013-04-01 19:42:00,29.7,14.7,30.07,WNW,292,8.0,17.0,53,0.00,,---,0.12,VWS V14.00,2013-04-01 23:42:00,
2013-04-01 19:50:00,29.7,14.2,30.07,West,261,6.0,17.0,52,0.00,,---,0.12,VWS V14.00,2013-04-01 23:50:00,
2013-04-01 19:58:00,29.6,14.6,30.07,West,269,8.0,17.0,53,0.00,,---,0.12,VWS V14.00,2013-04-01 23:58:00,
2013-04-01 20:06:00,29.5,15.3,30.07,NNW,334,3.0,14.0,55,0.00,,---,0.12,VWS V14.00,2013-04-02 00:06:00,
2013-04-01 20:14:00,29.2,18.2,30.07,NW,326,5.0,15.0,63,0.00,,---,0.12,VWS V14.00,2013-04-02 00:14:00,
2013-04-01 20:22:00,28.4,19.9,30.07,West,262,2.0,15.0,70,0.00,,---,0.12,VWS V14.00,2013-04-02 00:22:00,
2013-04-01 20:30:00,28.1,19.6,30.07,WNW,296,7.0,15.0,70,0.00,,---,0.12,VWS V14.00,2013-04-02 00:30:00,
2013-04-01 20:38:00,27.9,21.3,30.08,NW,317,4.0,7.0,76,0.00,,---,0.12,VWS V14.00,2013-04-02 00:38:00,
2013-04-01 20:54:00,26.4,22.5,30.09,WNW,299,5.0,10.0,85,0.00,,---,0.12,VWS V14.00,2013-04-02 00:54:00,
2013-04-01 21:00:00,25.6,22.0,30.09,West,280,4.0,22.0,86,0.00,,---,0.12,VWS V14.00,2013-04-02 01:00:00,
2013-04-01 21:10:00,25.2,22.1,30.09,West,279,7.0,15.0,88,0.00,,---,0.12,VWS V14.00,2013-04-02 01:10:00,
2013-04-01 21:18:00,25.3,22.2,30.09,WSW,252,2.0,15.0,88,0.00,,---,0.12,VWS V14.00,2013-04-02 01:18:00,
2013-04-01 21:26:00,25.4,22.4,30.09,WSW,241,2.0,15.0,88,0.00,,---,0.12,VWS V14.00,2013-04-02 01:26:00,
2013-04-01 21:34:00,25.4,22.4,30.09,SW,225,3.0,4.0,88,0.00,,---,0.12,VWS V14.00,2013-04-02 01:34:00,
2013-04-01 21:42:00,25.2,22.1,30.09,West,276,2.0,6.0,88,0.00,,---,0.12,VWS V14.00,2013-04-02 01:42:00,
2013-04-01 21:50:00,25.1,22.0,30.09,West,265,6.0,6.0,88,0.00,,---,0.12,VWS V14.00,2013-04-02 01:50:00,
2013-04-01 21:58:00,24.8,21.8,30.09,West,263,0.0,7.0,88,0.00,,---,0.12,VWS V14.00,2013-04-02 01:58:00,
2013-04-01 22:07:00,24.7,21.7,30.09,West,262,3.0,4.0,88,0.00,,---,0.12,VWS V14.00,2013-04-02 02:07:00,
2013-04-01 22:15:00,24.9,21.9,30.10,WNW,285,4.0,7.0,88,0.00,,---,0.12,VWS V14.00,2013-04-02 02:15:00,
2013-04-01 22:23:00,25.1,21.8,30.10,NW,321,3.0,7.0,87,0.00,,---,0.12,VWS V14.00,2013-04-02 02:23:00,
2013-04-01 22:30:00,25.3,22.0,30.10,WNW,300,4.0,7.0,87,0.00,,---,0.12,VWS V14.00,2013-04-02 02:30:00,
2013-04-01 22:39:00,25.4,22.1,30.10,WNW,300,0.0,4.0,87,0.00,,---,0.12,VWS V14.00,2013-04-02 02:39:00,
2013-04-01 22:47:00,25.4,22.1,30.10,WNW,300,3.0,4.0,87,0.00,,---,0.12,VWS V14.00,2013-04-02 02:47:00,
2013-04-01 22:55:00,25.4,22.1,30.10,NW,305,3.0,7.0,87,0.00,,---,0.12,VWS V14.00,2013-04-02 02:55:00,
2013-04-01 23:00:00,25.4,22.4,30.10,NW,304,3.0,7.0,88,0.00,,---,0.12,VWS V14.00,2013-04-02 03:00:00,
2013-04-01 23:19:00,25.1,22.0,30.11,NW,318,4.0,9.0,88,0.00,,---,0.12,VWS V14.00,2013-04-02 03:19:00,
2013-04-01 23:27:00,25.0,21.7,30.11,WNW,300,1.0,9.0,87,0.00,,---,0.12,VWS V14.00,2013-04-02 03:27:00,
2013-04-01 23:35:00,24.9,21.9,30.11,West,259,3.0,5.0,88,0.00,,---,0.12,VWS V14.00,2013-04-02 03:35:00,
2013-04-01 23:43:00,24.8,21.8,30.11,NNW,333,2.0,9.0,88,0.00,,---,0.12,VWS V14.00,2013-04-02 03:43:00,
2013-04-01 23:59:00,24.4,21.4,30.11,NW,309,5.0,9.0,88,0.00,,---,0.12,VWS V14.00,2013-04-02 03:59:00,